Regional Weather Roundup
Issued by NWS Little Rock, AR

Home | Current Version | Previous Version | Text Only | Print | Product List | Glossary Off
Versions: 1 2 3 4 5 6 7 8 9 10 11 12 13 14 15 16 17 18 19 20 21 22 23 24 25 26 27 28 29 30 31 32 33 34 35 36 37 38 39 40 41 42 43 44 45 46 47 48 49 50

000
ASUS44 KLZK 012305
RWRLZK

WEATHER ROUNDUP FOR ARKANSAS
NATIONAL WEATHER SERVICE LITTLE ROCK AR
500 PM CST SUN MAR 01 2015

NOTE: "FAIR" INDICATES FEW OR NO CLOUDS BELOW 12,000 FEET WITH NO
SIGNIFICANT WEATHER AND/OR OBSTRUCTIONS TO VISIBILITY.

ARZ001-003-010-029-020000-
NORTHWEST ARKANSAS

CITY           SKY/WX    TMP DP  RH WIND       PRES   REMARKS
FAYETTEVILLE   CLOUDY    33  31  92 NW7       30.34S WCI  27
FORT SMITH     CLOUDY    39  34  82 NW7       30.36S
HARRISON       CLOUDY    32  31  96 NW6       30.33R FOG     WCI  26
BENTONVILLE    CLOUDY    32  28  86 N6        30.35S WCI  26
ROGERS         CLOUDY    32  30  92 NW7       30.35R FOG     WCI  26
SILOAM SPGS    CLOUDY    32  25  74 CALM      30.36S
HIGHFILL       CLOUDY    32  30  92 N7        30.34S FOG     WCI  26
$$

ARZ004-005-016-020000-
NORTH CENTRAL ARKANSAS

CITY           SKY/WX    TMP DP  RH WIND       PRES   REMARKS
BATESVILLE     CLOUDY    39  36  87 W3        30.35R
FLIPPIN        CLOUDY    36  30  80 NW5       30.35R
MTN HOME       CLOUDY    34  32  92 VRB3      30.34R
$$

ARZ040-041-020000-
WEST CENTRAL ARKANSAS

CITY           SKY/WX    TMP DP  RH WIND       PRES   REMARKS
MENA           CLOUDY    41  37  87 NE7       30.31R
MOUNT IDA      CLOUDY    39  37  92 CALM      30.30R
$$

ARZ009-017-025-026-028-020000-
NORTHEAST ARKANSAS

CITY           SKY/WX    TMP DP  RH WIND       PRES   REMARKS
CORNING        CLOUDY    37  34  87 CALM      30.35S
JONESBORO      CLOUDY    37  34  89 N3        30.34R
NEWPORT        CLOUDY    38  36  92 CALM      30.36R
WALNUT RIDGE   CLOUDY    37  32  81 E5        30.33F
BLYTHEVILLE    LGT RAIN  35  35 100 N7        30.35R FOG     WCI  29
$$

ARZ022-023-033-042-044-020000-
CENTRAL ARKANSAS

CITY           SKY/WX    TMP DP  RH WIND       PRES   REMARKS
LITTLE ROCK    DRIZZLE   41  38  89 N3        30.35R FOG
N LITTLE ROCK  CLOUDY    39  39 100 N6        30.35R
JACKSONVILLE   DRIZZLE   41  39  93 NW2       30.33R FOG
SEARCY         LGT RAIN  41  40  96 NW3       30.36R FOG
HOT SPRINGS    LGT RAIN  42  40  92 N3        30.32S FOG
RUSSELLVILLE   CLOUDY    39  37  92 NW3       30.33S FOG
CLINTON        CLOUDY    39  36  87 NW3       30.36S
$$

ARZ036-020000-
EAST ARKANSAS

CITY           SKY/WX    TMP DP  RH WIND       PRES   REMARKS
WEST MEMPHIS   CLOUDY    39  39 100 N9        30.32S FOG
$$

ARZ050-053-066-070-073-020000-
SOUTHWEST ARKANSAS

CITY           SKY/WX    TMP DP  RH WIND       PRES   REMARKS
ARKADELPHIA    CLOUDY    42  42 100 NE6       30.33F FOG
CAMDEN         LGT RAIN  41  37  87 MISG      30.32R VSB 3/4
TEXARKANA      CLOUDY    42  41  96 NE6       30.30S FOG
EL DORADO      LGT RAIN  41  40  96 N6        30.30R FOG
DE QUEEN       CLOUDY    44  42  93 N3        30.30F FOG
$$

ARZ056-057-069-020000-
SOUTHEAST ARKANSAS

CITY           SKY/WX    TMP DP  RH WIND       PRES   REMARKS
PINE BLUFF     LGT RAIN  39  38  96 N7        30.33R FOG
STUTTGART      CLOUDY    39  37  93 N10       30.34R
MONTICELLO     LGT RAIN  41  39  93 N5        30.30S FOG

$$




USA.gov is the U.S. government's official web portal to all federal, state and local government web resources and services.